Вернуться в каталог

STARLINK-5604

АктивенСвязьVLEO
NORAD 55420·PAYLOAD·🇺🇸 United States

Запущен Jan 31, 2023 с Vandenberg Space Force Base

Loading…

Ближайшие Пролёты (ближайшие 24 часа)

TLE

СвежийSource: CelesTrak SupGP

Эпоха: Sep 15, 2026, 01:29 UTC

1 55420C 23014AF  26258.06229167  .00025051  00000+0  20990-2 0  2584
2 55420  69.9993 287.0031 0003769 263.3206 125.6248 14.98322253    19

Отслеживайте STARLINK-5604 в реальном времени с AllMySat

Download on the App Store